This demonstration page uses our WeatherBlox Daily Observations layout. Learn more.

Left ArrowRight Arrow

Hourly Observations for September 25, 2016

Temp ( °F °C ) Dew Point ( °F °C ) Humidity (%) Winds ( mph kmh ) Pressure ( in mb ) Visibility ( mi km ) Precip ( " mm )
12:15 am 00:15 Clear 63 17 63 17 100 100 N N/A 30.18 1022 10 16 N/A
12:35 am 00:35 Clear 61 16 61 16 100 100 N N/A 30.18 1022 10 16 N/A
12:55 am 00:55 Clear 61 16 61 16 100 100 N N/A 30.18 1022 10 16 N/A
1:15 am 01:15 Clear 61 16 61 16 100 100 N N/A 30.18 1022 7 11 N/A
1:35 am 01:35 Mostly Cloudy 61 16 61 16 100 100 N 3 6 30.18 1022 10 16 N/A
1:55 am 01:55 Mostly Cloudy 63 17 61 16 94 94 N 5 7 30.18 1022 10 16 N/A
2:15 am 02:15 Mostly Cloudy 61 16 57 14 88 88 NNE 5 7 30.18 1022 10 16 N/A
2:35 am 02:35 Mostly Cloudy 61 16 55 13 83 83 N 5 7 30.18 1022 10 16 N/A
2:55 am 02:55 Partly Cloudy 59 15 54 12 82 82 N 5 7 30.18 1022 10 16 N/A
3:15 am 03:15 Clear 59 15 54 12 82 82 N 8 13 30.18 1022 10 16 N/A
3:35 am 03:35 Mostly Cloudy 59 15 54 12 82 82 N 6 9 30.18 1022 10 16 N/A
3:55 am 03:55 Partly Cloudy 57 14 52 11 82 82 N 5 7 30.18 1022 10 16 N/A
4:15 am 04:15 Clear 57 14 52 11 82 82 NNE 5 7 30.18 1022 10 16 N/A
4:35 am 04:35 Clear 55 13 52 11 88 88 N 6 9 30.18 1022 10 16 N/A
4:55 am 04:55 Clear 55 13 50 10 82 82 N 5 7 30.18 1022 10 16 N/A
5:15 am 05:15 Clear 55 13 50 10 82 82 N 6 9 30.21 1023 10 16 N/A
5:35 am 05:35 Clear 55 13 50 10 82 82 NNE 8 13 30.21 1023 10 16 N/A
5:55 am 05:55 Clear 55 13 50 10 82 82 NNE 5 7 30.21 1023 10 16 N/A
6:15 am 06:15 Clear 54 12 50 10 88 88 N N/A 30.21 1023 10 16 N/A
6:35 am 06:35 Clear 54 12 50 10 88 88 N 5 7 30.24 1024 10 16 N/A
6:55 am 06:55 Partly Cloudy 54 12 50 10 88 88 NNE 6 9 30.24 1024 10 16 N/A
7:15 am 07:15 Cloudy 54 12 50 10 88 88 N N/A 30.24 1024 10 16 N/A
7:35 am 07:35 Mostly Cloudy 54 12 50 10 88 88 N 3 6 30.24 1024 10 16 N/A
7:55 am 07:55 Partly Cloudy 55 13 50 10 82 82 NNE 3 6 30.24 1024 10 16 N/A
8:15 am 08:15 Sunny 55 13 50 10 82 82 NNE 3 6 30.24 1024 10 16 N/A
8:35 am 08:35 Sunny 57 14 50 10 77 77 NNE 3 6 30.24 1024 10 16 N/A
8:55 am 08:55 Sunny 59 15 50 10 72 72 NE 5 7 30.24 1024 10 16 N/A
9:15 am 09:15 Sunny 61 16 50 10 68 68 NNE 3 6 30.24 1024 10 16 N/A
9:35 am 09:35 Sunny 61 16 48 9 63 63 NE 5 7 30.24 1024 10 16 N/A
9:55 am 09:55 Sunny 63 17 50 10 64 64 ENE 6 9 30.24 1024 10 16 N/A
10:15 am 10:15 Partly Cloudy 63 17 48 9 59 59 NNE 5 7 30.24 1024 10 16 N/A
10:35 am 10:35 Mostly Cloudy 64 18 46 8 52 52 NE 5 7 30.24 1024 10 16 N/A
10:55 am 10:55 Cloudy 64 18 46 8 52 52 N N/A 30.24 1024 10 16 N/A
11:15 am 11:15 Cloudy 66 19 46 8 49 49 N N/A 30.24 1024 10 16 N/A
11:35 am 11:35 Cloudy 68 20 48 9 49 49 ENE 3 6 30.24 1024 10 16 N/A
11:55 am 11:55 Mostly Cloudy 68 20 46 8 46 46 N 3 6 30.24 1024 10 16 N/A
12:15 pm 12:15 Cloudy 68 20 46 8 46 46 NE 3 6 30.24 1024 10 16 N/A
12:35 pm 12:35 Cloudy 70 21 48 9 46 46 N N/A 30.21 1023 10 16 N/A
12:55 pm 12:55 Cloudy 70 21 46 8 43 43 N N/A 30.21 1023 10 16 N/A
1:15 pm 13:15 Cloudy 72 22 46 8 41 41 N N/A 30.21 1023 10 16 N/A
1:35 pm 13:35 Cloudy 72 22 48 9 44 44 N N/A 30.21 1023 10 16 N/A
1:55 pm 13:55 Mostly Cloudy 73 23 50 10 44 44 WSW 6 9 30.18 1022 10 16 N/A
2:15 pm 14:15 Mostly Cloudy 72 22 46 8 41 41 SW 3 6 30.18 1022 10 16 N/A
2:35 pm 14:35 Partly Cloudy 72 22 46 8 41 41 SSE 3 6 30.18 1022 10 16 N/A
2:55 pm 14:55 Mostly Cloudy 73 23 50 10 44 44 S 7 11 30.18 1022 10 16 N/A
3:15 pm 15:15 Mostly Cloudy 72 22 50 10 47 47 N N/A 30.15 1021 10 16 N/A
3:35 pm 15:35 Mostly Cloudy 73 23 50 10 44 44 SSW 6 9 30.15 1021 10 16 N/A
3:55 pm 15:55 Mostly Cloudy 73 23 50 10 44 44 WSW 7 11 30.15 1021 10 16 N/A
4:15 pm 16:15 Partly Cloudy 73 23 52 11 47 47 SW 12 19 30.15 1021 10 16 N/A
4:35 pm 16:35 Sunny 72 22 52 11 50 50 SW 8 13 30.15 1021 10 16 N/A
4:55 pm 16:55 Partly Cloudy 70 21 52 11 53 53 SW 7 11 30.15 1021 10 16 N/A
5:15 pm 17:15 Mostly Cloudy 72 22 52 11 50 50 SW 8 13 30.15 1021 10 16 N/A
5:35 pm 17:35 Cloudy 70 21 52 11 53 53 SSW 12 19 30.15 1021 10 16 N/A
5:55 pm 17:55 Cloudy 72 22 52 11 50 50 SSW 12 19 30.15 1021 10 16 N/A
6:15 pm 18:15 Partly Cloudy 70 21 54 12 57 57 SW 5 7 30.15 1021 10 16 N/A
6:35 pm 18:35 Sunny 70 21 54 12 57 57 SSW 3 6 30.15 1021 10 16 N/A
6:55 pm 18:55 Sunny 68 20 55 13 64 64 SSW 5 7 30.15 1021 10 16 N/A
7:15 pm 19:15 Clear 66 19 55 13 68 68 S 3 6 30.15 1021 10 16 N/A
7:35 pm 19:35 Clear 64 18 55 13 73 73 SSW 3 6 30.15 1021 10 16 N/A
7:55 pm 19:55 Clear 64 18 55 13 73 73 N N/A 30.15 1021 10 16 N/A
8:15 pm 20:15 Clear 63 17 55 13 77 77 N N/A 30.15 1021 10 16 N/A
8:35 pm 20:35 Clear 61 16 55 13 83 83 N N/A 30.15 1021 10 16 N/A
8:55 pm 20:55 Clear 61 16 55 13 83 83 W 3 6 30.18 1022 10 16 N/A
9:15 pm 21:15 Clear 61 16 55 13 83 83 N N/A 30.18 1022 10 16 N/A
9:35 pm 21:35 Clear 59 15 55 13 88 88 WSW 5 7 30.18 1022 10 16 N/A
9:55 pm 21:55 Clear 59 15 55 13 88 88 N N/A 30.18 1022 10 16 N/A
10:15 pm 22:15 Partly Cloudy 61 16 57 14 88 88 E 5 7 30.18 1022 10 16 N/A
10:35 pm 22:35 Cloudy 61 16 57 14 88 88 E 3 6 30.18 1022 10 16 N/A
10:55 pm 22:55 Cloudy 61 16 57 14 88 88 N N/A 30.18 1022 10 16 N/A
11:15 pm 23:15 Partly Cloudy 61 16 55 13 83 83 N N/A 30.18 1022 10 16 N/A
11:35 pm 23:35 Partly Cloudy 59 15 55 13 88 88 SSW 7 11 30.18 1022 10 16 N/A
11:55 pm 23:55 Mostly Cloudy 57 14 55 13 94 94 N N/A 30.18 1022 10 16 N/A

Powered by AerisWeather